398P/Boattini (2020)

Japanese version
Home page
Updated on May 4, 2021

---------------------------------------------------------------------

* Profile

Designation 398P/2020 P2
Recovery Date August 11, 2020
Magnitude 19.1 mag
Recoverer N. Erasmus (Asteroid Terrestrial-Impact Last Alert System (ATLAS) search program)

* Pictures

* Orbital Elements

Epoch 2020 Dec. 17.0 TT = JDT 2459200.5
T 2020 Dec. 26.74683 TT                                 Rudenko
q   1.3056856            (2000.0)            P               Q
n   0.17815124     Peri.  320.23694     +0.03078218     -0.98795286
a   3.1280725      Node   127.46282     +0.95877976     -0.01369661
e   0.5825910      Incl.   11.01533     +0.28247803     +0.15414782
P   5.53
From 1939 observations 2009 Aug. 26-2021 Mar. 20, mean residual 1".2.

* Finding Charts

* Magnitudes Graph

        m1 = 12.0 + 5 log d + 20.0 log r

---------------------------------------------------------------------

The orbital elements are published on M.P.E.C. 2021-J28.
The charts are made with StellaNavigator Ver.10 (AstroArts).
The magnitudes graphs are made with Comet for Windows.

---------------------------------------------------------------------

Copyright(C) Seiichi Yoshida (comet@aerith.net). All rights reserved.